sat.trackr.live / text

‹ back to catalog

STARLINK-35642

NORAD 66398 · 2025-257U

PAYLOAD ACTIVE UNKNOWN

§ Identity

Operator
Country
US
Launch date
2025-11-09
Launch site
AFETR
Launch vehicle
Mass (kg)
RCS (m²)

Purposes: comms

External: N2YO · Heavens-Above · Gunter

§ Orbital elements

Epoch: 2026-09-20T20:48:07.108416Z

Period
93.85 min
Inclination
53.1604°
Eccentricity
0.0001119
Mean motion
15.34404579 rev/d
Perigee alt
461.9 km
Apogee alt
463.5 km
Semi-major
6,840.8 km
B*
5.5730e-4
RAAN
26.3573°
Arg perigee
88.6056°
Mean anomaly
271.5075°
Rev number
4,967

§ Raw data

STARLINK-356421 66398U 25257U   26263.86674894  .00018502  00000+0  55730-3 0  99922 66398  53.1604  26.3573 0001119  88.6056 271.5075 15.34404579 49679

JSON: /api/v1/satellites/66398 · /tle

For live sub-satellite position, see the globe view (requires WebGL).

§ Visibility from observer

Set your observer location to see the next 7 days of passes ≥ 10°. The values pass through the URL so the page stays shareable.

No JS? Fill the form by hand. The geolocation button needs JavaScript.